TimeCDT,TemperatureF,Dew PointF,Humidity,Sea Level PressureIn,VisibilityMPH,Wind Direction,Wind SpeedMPH,Gust SpeedMPH,PrecipitationIn,Events,Conditions,WindDirDegrees,DateUTC
12:54 AM,57.9,55.9,93,30.04,7.0,East,10.4,20.7,0.02,,Mostly Cloudy,100,2013-05-27 05:54:00
1:08 AM,57.9,55.9,93,30.04,1.8,East,11.5,-,0.05,,Overcast,90,2013-05-27 06:08:00
1:25 AM,57.9,55.9,93,30.03,3.0,ESE,12.7,21.9,0.30,,Overcast,110,2013-05-27 06:25:00
1:50 AM,57.2,55.4,94,30.02,5.0,East,10.4,-,0.33,,Overcast,100,2013-05-27 06:50:00
1:54 AM,57.9,55.9,93,30.02,4.0,East,11.5,-,0.34,,Overcast,90,2013-05-27 06:54:00
2:09 AM,57.9,55.9,93,30.03,5.0,ESE,9.2,-,0.03,,Overcast,120,2013-05-27 07:09:00
2:54 AM,59.0,57.0,93,30.04,5.0,SE,9.2,-,0.06,Rain-Thunderstorm,Thunderstorms and Rain,140,2013-05-27 07:54:00
3:15 AM,57.9,57.0,97,30.01,3.0,SE,11.5,-,0.08,Rain-Thunderstorm,Thunderstorms and Rain,140,2013-05-27 08:15:00
3:39 AM,57.9,57.0,97,29.99,3.0,SE,6.9,-,0.15,Rain-Thunderstorm,Thunderstorms and Rain,140,2013-05-27 08:39:00
3:54 AM,57.9,57.0,97,29.99,3.0,SE,8.1,-,0.18,Rain-Thunderstorm,Thunderstorms and Rain,130,2013-05-27 08:54:00
4:09 AM,59.0,57.0,93,29.98,3.0,SE,6.9,-,0.04,Rain-Thunderstorm,Thunderstorms and Rain,130,2013-05-27 09:09:00
4:30 AM,59.0,57.0,93,29.97,3.0,SE,9.2,-,0.11,Rain-Thunderstorm,Thunderstorms and Rain,130,2013-05-27 09:30:00
4:41 AM,59.0,57.0,93,29.97,3.0,SE,8.1,-,0.14,Rain-Thunderstorm,Thunderstorms and Rain,140,2013-05-27 09:41:00
4:54 AM,59.0,57.9,96,29.96,3.0,SE,8.1,-,0.15,,Overcast,130,2013-05-27 09:54:00
5:44 AM,60.1,57.9,93,29.91,2.5,East,9.2,-,0.04,Rain,Light Rain,90,2013-05-27 10:44:00
5:54 AM,60.1,57.9,93,29.91,2.5,East,8.1,-,0.05,Rain,Light Rain,80,2013-05-27 10:54:00
6:13 AM,60.1,57.9,93,29.93,1.8,ENE,5.8,-,0.03,Rain,Light Rain,60,2013-05-27 11:13:00
6:54 AM,60.1,59.0,96,29.97,2.0,SSW,3.5,-,0.06,Rain,Light Rain,210,2013-05-27 11:54:00
7:04 AM,60.1,59.0,96,29.97,1.8,ESE,4.6,-,0.03,Rain,Rain,110,2013-05-27 12:04:00
7:14 AM,60.1,59.0,96,29.96,0.8,NNE,4.6,-,0.13,Rain,Heavy Rain,30,2013-05-27 12:14:00
7:34 AM,60.1,59.0,96,29.96,1.0,NNE,3.5,-,0.28,Rain,Rain,30,2013-05-27 12:34:00
7:54 AM,60.1,59.0,96,29.96,1.0,ENE,5.8,-,0.38,Rain,Rain,60,2013-05-27 12:54:00
8:18 AM,60.1,59.0,96,29.96,1.8,ENE,4.6,-,0.05,Rain,Light Rain,70,2013-05-27 13:18:00
8:29 AM,60.1,59.0,96,29.97,2.0,ENE,3.5,-,0.06,Rain,Light Rain,60,2013-05-27 13:29:00
8:54 AM,61.0,59.0,93,29.98,2.5,NNE,3.5,-,0.08,Rain,Light Rain,30,2013-05-27 13:54:00
9:02 AM,61.0,59.0,93,29.98,1.8,NNW,4.6,-,0.01,Rain,Light Rain,330,2013-05-27 14:02:00
9:18 AM,61.0,59.0,93,29.97,2.0,ENE,5.8,-,0.05,Rain,Light Rain,60,2013-05-27 14:18:00
9:31 AM,62.1,60.1,93,29.96,3.0,NE,5.8,-,0.05,Rain,Light Rain,50,2013-05-27 14:31:00
9:54 AM,62.1,60.1,93,29.94,5.0,NE,4.6,-,0.05,,Overcast,40,2013-05-27 14:54:00
10:13 AM,63.0,61.0,93,29.93,4.0,East,10.4,-,N/A,,Overcast,80,2013-05-27 15:13:00
10:29 AM,64.0,61.0,90,29.94,6.0,ENE,8.1,-,N/A,,Overcast,70,2013-05-27 15:29:00
10:54 AM,66.0,62.1,87,29.93,6.0,East,10.4,-,N/A,,Mostly Cloudy,100,2013-05-27 15:54:00
11:54 AM,66.0,61.0,84,29.94,6.0,Variable,3.5,-,N/A,,Haze,0,2013-05-27 16:54:00
12:10 PM,66.0,62.1,87,29.94,6.0,SW,4.6,-,N/A,,Overcast,230,2013-05-27 17:10:00
12:34 PM,66.9,62.1,84,29.94,6.0,Calm,Calm,-,N/A,,Haze,0,2013-05-27 17:34:00
12:54 PM,68.0,62.1,81,29.93,7.0,Variable,3.5,-,N/A,,Partly Cloudy,0,2013-05-27 17:54:00
1:54 PM,69.1,63.0,81,29.92,5.0,South,3.5,-,N/A,,Haze,190,2013-05-27 18:54:00
2:26 PM,68.0,63.0,84,29.92,3.0,SSW,9.2,-,0.00,Rain,Light Rain,200,2013-05-27 19:26:00
2:44 PM,66.9,64.0,90,29.92,2.0,South,9.2,-,0.04,Rain,Rain,190,2013-05-27 19:44:00
2:48 PM,66.2,64.4,94,29.91,2.0,South,9.2,-,0.05,Rain,Rain,180,2013-05-27 19:48:00
2:54 PM,66.9,64.0,90,29.89,1.8,SSE,10.4,-,0.06,Rain,Rain,160,2013-05-27 19:54:00
3:05 PM,66.0,64.0,93,29.87,2.0,SE,9.2,-,0.02,Rain,Light Rain,130,2013-05-27 20:05:00
3:08 PM,66.0,64.0,93,29.87,1.8,SE,11.5,-,0.02,Rain,Light Rain,130,2013-05-27 20:08:00
3:27 PM,66.0,64.0,93,29.84,2.5,SE,9.2,-,0.03,Rain,Light Rain,130,2013-05-27 20:27:00
3:36 PM,66.0,64.0,93,29.82,4.0,SE,12.7,-,0.03,,Mostly Cloudy,130,2013-05-27 20:36:00
3:54 PM,66.0,64.0,93,29.81,5.0,East,6.9,-,0.03,,Partly Cloudy,100,2013-05-27 20:54:00
4:54 PM,66.9,64.0,90,29.80,7.0,East,10.4,-,N/A,,Clear,90,2013-05-27 21:54:00
5:54 PM,68.0,64.0,87,29.81,10.0,East,5.8,-,N/A,,Clear,100,2013-05-27 22:54:00
6:54 PM,68.0,63.0,84,29.82,10.0,Variable,5.8,-,N/A,,Clear,0,2013-05-27 23:54:00
7:54 PM,66.9,63.0,87,29.82,10.0,SSE,5.8,-,N/A,,Partly Cloudy,160,2013-05-28 00:54:00
8:54 PM,66.0,63.0,90,29.82,10.0,South,6.9,-,N/A,,Mostly Cloudy,180,2013-05-28 01:54:00
9:54 PM,66.0,63.0,90,29.84,10.0,SSE,6.9,-,N/A,,Overcast,160,2013-05-28 02:54:00
10:54 PM,64.9,62.1,90,29.86,10.0,South,9.2,-,N/A,,Overcast,180,2013-05-28 03:54:00
11:54 PM,64.9,62.1,90,29.83,10.0,SSW,8.1,-,N/A,,Overcast,200,2013-05-28 04:54:00